Total_Precipitation_Accumulation
2.47 2.62 2.74 2.70 2.72 2.74 2.84 2.98 3.09 2.90 2.60 2.40 2.32 2.27 2.31 2.38 2.59 2.20 2.14 2.32 2.14 2.00 1.90 1.87 1.88 2.01 2.12 2.11 2.08 2.14 2.23 2.32 2.48 2.59 2.70 2.90 3.06 3.18
2.18 2.29 2.39 2.41 2.51 2.54 2.64 2.76 2.84 2.81 2.62 2.34 2.28 2.27 2.24 2.07 2.27 1.99 2.04 2.21 2.03 1.92 1.83 1.80 1.76 1.79 1.86 1.92 1.91 1.87 1.87 1.85 1.90 1.97 2.05 2.18 2.38 2.64
2.14 2.21 2.26 2.28 2.36 2.33 2.33 2.37 2.49 2.67 2.78 2.60 2.41 2.35 2.35 2.24 2.10 1.89 1.78 1.78 1.72 1.82 1.79 1.77 1.70 1.67 1.72 1.73 1.68 1.64 1.61 1.59 1.61 1.65 1.71 1.81 1.89 2.01
2.07 2.22 2.19 2.11 2.14 2.17 2.22 2.19 2.22 2.39 2.57 2.53 2.38 2.25 2.24 2.22 2.15 2.05 1.71 1.56 1.54 1.58 1.53 1.48 1.50 1.51 1.48 1.51 1.50 1.47 1.44 1.42 1.44 1.47 1.50 1.57 1.66 1.78
1.85 1.90 1.94 1.95 1.89 1.87 1.91 1.96 1.95 1.99 2.23 2.27 2.19 2.12 2.06 2.02 2.10 2.04 1.84 1.85 1.48 1.41 1.34 1.27 1.25 1.25 1.24 1.23 1.27 1.33 1.34 1.31 1.29 1.32 1.37 1.45 1.51 1.60
1.51 1.53 1.62 1.73 1.75 1.76 1.70 1.76 1.84 1.98 2.09 2.14 2.05 2.00 1.99 1.89 1.97 1.98 1.93 1.79 1.58 1.33 1.33 1.20 1.12 1.07 1.05 1.06 1.06 1.09 1.13 1.21 1.33 1.33 1.27 1.21 1.24 1.29
1.29 1.23 1.24 1.45 1.59 1.55 1.40 1.55 1.75 1.91 1.99 2.03 1.94 1.82 1.76 1.86 1.84 1.78 1.79 1.78 1.67 1.50 1.52 1.32 1.22 1.14 1.14 1.12 1.06 1.02 1.05 1.07 1.14 1.19 1.21 1.17 1.16 1.13
1.30 1.27 1.18 1.24 1.33 1.29 1.20 1.33 1.57 1.65 1.74 1.89 1.89 1.81 1.74 1.78 1.83 1.82 1.86 1.93 1.89 1.63 1.68 1.53 1.41 1.39 1.28 1.18 1.14 1.05 1.02 1.07 1.07 1.05 1.06 1.09 1.11 1.11
1.26 1.27 1.11 1.04 1.22 1.24 1.24 1.24 1.30 1.31 1.42 1.71 1.87 1.77 1.76 1.85 1.98 1.93 2.04 2.05 1.91 1.78 1.94 1.85 1.56 1.43 1.16 1.07 1.14 1.03 1.02 1.05 1.08 1.06 1.04 1.05 1.07 1.09
1.20 1.26 1.30 1.21 1.14 1.20 1.21 1.23 1.28 1.31 1.27 1.33 1.56 1.63 1.67 1.83 1.99 2.06 2.17 2.10 1.97 1.90 2.01 2.05 1.69 1.56 1.28 1.26 1.19 1.03 1.00 0.99 1.01 1.01 1.01 1.03 1.10 1.16
1.16 1.15 1.23 1.24 1.20 1.17 1.22 1.34 1.40 1.41 1.19 1.19 1.26 1.37 1.45 1.59 1.74 1.88 2.13 2.30 2.14 1.88 1.87 2.02 1.77 1.67 1.52 1.41 1.24 1.12 1.02 1.00 0.97 0.97 0.98 1.02 1.10 1.22
1.21 1.19 1.13 1.14 1.18 1.16 1.25 1.41 1.44 1.42 1.30 1.25 1.39 1.49 1.46 1.56 1.65 1.81 2.09 2.19 2.06 1.97 1.75 1.87 1.80 1.85 1.85 1.51 1.35 1.27 1.18 1.08 0.97 0.95 0.96 0.99 1.09 1.12
1.11 1.19 1.15 1.09 1.09 1.11 1.24 1.31 1.33 1.29 1.41 1.55 1.58 1.58 1.59 1.63 1.64 1.69 1.92 2.06 2.10 2.05 1.76 1.87 1.91 1.99 2.06 1.73 1.47 1.40 1.37 1.31 1.22 1.18 1.16 1.14 1.14 1.11
1.12 1.16 1.10 1.08 1.09 1.14 1.16 1.21 1.22 1.29 1.47 1.67 1.68 1.61 1.53 1.50 1.53 1.56 1.73 1.90 1.96 1.89 1.78 1.88 2.04 2.05 1.96 1.72 1.56 1.42 1.38 1.42 1.52 1.59 1.54 1.52 1.39 1.33
1.00 1.04 1.01 1.03 1.07 1.19 1.23 1.24 1.33 1.51 1.64 1.71 1.72 1.65 1.53 1.47 1.47 1.44 1.55 1.77 1.78 1.60 1.46 1.58 1.87 1.95 1.98 1.84 1.67 1.62 1.57 1.48 1.58 1.81 1.88 1.76 1.58 1.45
0.90 0.97 1.04 1.10 1.14 1.26 1.39 1.48 1.52 1.57 1.55 1.66 1.72 1.63 1.50 1.46 1.49 1.48 1.59 1.69 1.73 1.62 1.44 1.41 1.61 1.88 2.01 1.88 1.79 1.74 1.73 1.76 1.70 1.80 1.97 2.01 1.81 1.51
0.83 0.99 1.21 1.27 1.36 1.45 1.49 1.54 1.59 1.52 1.46 1.48 1.57 1.62 1.60 1.53 1.48 1.43 1.54 1.60 1.66 1.60 1.48 1.41 1.46 1.59 1.66 1.74 1.79 1.70 1.68 1.75 1.80 1.86 2.04 2.20 2.06 1.72
0.84 1.04 1.17 1.24 1.34 1.41 1.43 1.45 1.49 1.51 1.44 1.42 1.46 1.47 1.46 1.46 1.49 1.44 1.45 1.59 1.64 1.52 1.44 1.37 1.37 1.48 1.55 1.53 1.59 1.60 1.61 1.76 1.90 1.95 1.92 2.05 2.18 1.96
1.05 1.17 1.17 1.23 1.31 1.29 1.30 1.32 1.35 1.36 1.31 1.30 1.29 1.28 1.29 1.31 1.40 1.43 1.40 1.44 1.45 1.35 1.33 1.33 1.39 1.52 1.61 1.64 1.55 1.59 1.68 1.79 1.91 1.95 1.92 1.93 2.07 1.96
1.17 1.24 1.24 1.23 1.26 1.25 1.25 1.25 1.21 1.18 1.16 1.18 1.23 1.24 1.26 1.25 1.26 1.27 1.25 1.27 1.34 1.32 1.30 1.35 1.38 1.43 1.53 1.59 1.75 1.79 1.67 1.61 1.69 1.86 1.98 1.98 2.01 1.94
1.09 1.14 1.18 1.17 1.15 1.20 1.20 1.12 1.07 1.06 1.07 1.08 1.11 1.16 1.18 1.15 1.14 1.10 1.09 1.09 1.18 1.23 1.27 1.27 1.26 1.26 1.30 1.42 1.60 1.72 1.70 1.71 1.69 1.76 1.86 1.93 1.83 1.67
0.96 0.97 0.96 0.94 1.00 1.05 1.02 0.96 0.93 0.97 1.01 1.02 1.05 1.05 1.04 1.05 1.05 1.02 1.02 1.04 1.07 1.08 1.10 1.12 1.15 1.23 1.32 1.47 1.56 1.65 1.68 1.56 1.50 1.59 1.64 1.55 1.44 1.47
0.92 0.89 0.85 0.84 0.89 0.95 0.96 0.93 0.90 0.89 0.91 0.98 1.01 0.99 0.97 0.97 0.92 0.91 0.92 0.91 0.90 0.91 0.98 1.05 1.10 1.20 1.24 1.25 1.29 1.35 1.34 1.32 1.27 1.23 1.31 1.42 1.41 1.40